Tracking 27086 objects as of 22-Mar-2023
HD Live streaming from Space Station
objects crossing your sky now

STARLINK-3557

Track STARLINK-3557 now!
10-day predictions
STARLINK-3557 is classified as:


NORAD ID: 51802
Int'l Code: 2022-017AL
Perigee: 545.7 km
Apogee: 548.0 km
Inclination: 53.2 °
Period: 95.4 minutes
Semi major axis: 6917 km
RCS: Unknown
Launch date: February 25, 2022
Source: United States (US)
Launch site: AIR FORCE WESTERN TEST RANGE (AFWTR)
Your satellite tracking list
Your tracking list is empty




NASA's NSSDC Master Catalog

Two Line Element Set (TLE):
1 51802U 22017AL  23080.95075479  .00012681  00000-0  81329-3 0  9991
2 51802  53.2163 174.2021 0001634  86.1125 274.0054 15.08845848 60315
Source of the keplerian elements: AFSPC